Regional Weather Roundup
Issued by NWS

Home | Current Version | Previous Version | Graphics & Text | Print | Product List | Glossary On
Versions: 1 2 3 4 5 6 7 8 9 10 11 12 13 14 15 16 17 18 19 20 21 22 23 24 25 26 27 28 29 30 31 32 33 34 35 36 37 38 39 40 41 42 43 44 45 46 47 48 49 50
000
ASUS43 KBIS 201210
RWRND

NORTH DAKOTA REGIONAL WEATHER ROUNDUP
NATIONAL WEATHER SERVICE BISMARCK ND
600 AM CST FRI JAN 20 2017

NOTE: "FAIR" INDICATES FEW OR NO CLOUDS BELOW 12,000 FEET WITH NO
SIGNIFICANT WEATHER AND/OR OBSTRUCTIONS TO VISIBILITY.


NDZ001>003-009>011-017-201300-
NORTHWEST NORTH DAKOTA

CITY           SKY/WX    TMP DP  RH WIND       PRES   REMARKS
WILLISTON      FAIR      16  14  92 CALM      29.41R
6HR MIN TEMP:   8; 6HR MAX TEMP:  17;

MINOT          FAIR      16  13  88 SE7       29.39S WCI   6
MINOT AFB      FOG       15  13  90 CALM      29.38S VSB 0
$$

NDZ018>021-031>035-040>046-201300-
SOUTHWEST NORTH DAKOTA

CITY           SKY/WX    TMP DP  RH WIND       PRES   REMARKS
BISMARCK       FOG       22  21  96 CALM      29.43S VSB 1/4
6HR MIN TEMP:  11; 6HR MAX TEMP:  23;

DICKINSON      FAIR      20  17  88 W9        29.35F WCI   9
GARRISON         N/A     10   7  87 CALM      29.41S
6HR MIN TEMP:   6; 6HR MAX TEMP:  14;

HETTINGER ARPT CLOUDY    22  18  85 NW8       29.38S WCI  12
$$

NDZ004>008-012>016-024-026-027-054-201300-
NORTHEAST NORTH DAKOTA

CITY           SKY/WX    TMP DP  RH WIND       PRES   REMARKS
GRAND FORKS    FOG       35  33  92 SE10      29.52S VSB 3/4
GRND FRKS AFB  CLOUDY    34  32  93 SE9       29.50F FOG
DEVILS LAKE    CLOUDY    32  31  96 SE3       29.46F FOG
$$

NDZ022-023-025-028>030-036>039-047>053-201300-
SOUTHEAST NORTH DAKOTA

CITY           SKY/WX    TMP DP  RH WIND       PRES   REMARKS
FARGO          CLOUDY    50  36  58 SE9       29.52F
6HR MIN TEMP:  47; 6HR MAX TEMP:  50;

JAMESTOWN      FOG       33  33 100 SE7       29.44F VSB 1/2
$$




USA.gov is the U.S. government's official web portal to all federal, state and local government web resources and services.